TimeCDT,TemperatureF,Dew PointF,Humidity,Sea Level PressureIn,VisibilityMPH,Wind Direction,Wind SpeedMPH,Gust SpeedMPH,PrecipitationIn,Events,Conditions,WindDirDegrees,DateUTC
12:53 AM,71.1,68.0,90,30.02,8.0,ESE,3.5,-,N/A,,Overcast,110,2013-10-01 05:53:00
1:53 AM,70.0,66.9,90,30.03,10.0,SSE,3.5,-,N/A,,Partly Cloudy,160,2013-10-01 06:53:00
2:53 AM,69.1,66.0,90,30.03,10.0,ESE,4.6,-,N/A,,Overcast,120,2013-10-01 07:53:00
3:27 AM,69.8,66.2,88,30.05,10.0,East,3.5,-,N/A,,Overcast,80,2013-10-01 08:27:00
3:37 AM,69.8,66.2,88,30.05,10.0,East,5.8,-,N/A,,Overcast,90,2013-10-01 08:37:00
3:53 AM,69.1,66.0,90,30.04,10.0,East,4.6,-,N/A,,Overcast,100,2013-10-01 08:53:00
4:05 AM,69.8,66.2,88,30.05,10.0,Calm,Calm,-,N/A,,Overcast,0,2013-10-01 09:05:00
4:53 AM,69.1,66.0,90,30.05,10.0,Calm,Calm,-,N/A,,Overcast,0,2013-10-01 09:53:00
5:53 AM,69.1,64.9,87,30.06,10.0,East,4.6,-,N/A,,Overcast,90,2013-10-01 10:53:00
6:53 AM,69.1,64.0,84,30.08,10.0,East,3.5,-,N/A,,Overcast,100,2013-10-01 11:53:00
7:53 AM,70.0,64.0,81,30.09,10.0,East,4.6,-,N/A,,Overcast,90,2013-10-01 12:53:00
8:53 AM,71.1,64.9,81,30.11,10.0,East,6.9,-,N/A,,Overcast,100,2013-10-01 13:53:00
9:53 AM,73.9,66.0,76,30.12,10.0,East,3.5,-,N/A,,Overcast,100,2013-10-01 14:53:00
10:53 AM,77.0,68.0,74,30.11,10.0,ESE,4.6,-,N/A,,Scattered Clouds,110,2013-10-01 15:53:00
11:34 AM,78.8,69.8,74,30.11,10.0,Calm,Calm,-,N/A,,Mostly Cloudy,0,2013-10-01 16:34:00
11:53 AM,81.0,68.0,65,30.09,10.0,ENE,5.8,-,N/A,,Partly Cloudy,60,2013-10-01 16:53:00
12:53 PM,84.0,68.0,58,30.06,10.0,East,8.1,-,N/A,,Partly Cloudy,80,2013-10-01 17:53:00
1:53 PM,87.1,66.9,51,30.04,10.0,Variable,4.6,-,N/A,,Mostly Cloudy,0,2013-10-01 18:53:00
2:53 PM,84.9,66.9,55,30.03,10.0,ENE,4.6,-,N/A,,Mostly Cloudy,70,2013-10-01 19:53:00
3:53 PM,84.0,64.9,53,30.03,10.0,East,5.8,-,N/A,,Scattered Clouds,100,2013-10-01 20:53:00
4:53 PM,84.9,66.0,53,30.02,10.0,ENE,4.6,-,N/A,,Clear,70,2013-10-01 21:53:00
5:53 PM,79.0,70.0,74,30.04,10.0,Calm,Calm,-,N/A,,Clear,0,2013-10-01 22:53:00
6:53 PM,73.9,70.0,87,30.04,10.0,Calm,Calm,-,N/A,,Clear,0,2013-10-01 23:53:00
7:53 PM,73.0,69.1,87,30.05,10.0,Calm,Calm,-,N/A,,Clear,0,2013-10-02 00:53:00
8:53 PM,71.1,68.0,90,30.07,10.0,Calm,Calm,-,N/A,,Clear,0,2013-10-02 01:53:00
9:53 PM,70.0,66.9,90,30.08,7.0,Calm,Calm,-,N/A,,Clear,0,2013-10-02 02:53:00
10:53 PM,69.1,66.9,93,30.09,7.0,Calm,Calm,-,N/A,,Clear,0,2013-10-02 03:53:00
11:53 PM,68.0,66.0,93,30.08,5.0,Calm,Calm,-,N/A,,Clear,0,2013-10-02 04:53:00